軌道要素
Epoch 2020 May 31.0 TT = JDT 2459000.5
T 2020 May 30.12180 TT Rudenko
q 1.5934455 (2000.0) P Q
z +0.0047506 Peri. 62.69749 +0.66557037 -0.65074543
+/-0.0000061 Node 27.92761 -0.52922167 -0.75676126
e 0.9924302 Incl. 128.71544 +0.52625137 +0.06199017
From 234 observations 2019 Oct. 25-2020 Sept. 12, mean residual 1".8.
|